[[{"header":{"parameterUnit":"m.s-1","parameterCategory":1,"la1":30.2991,"la2":30.254,"lo1":-89.0895,"lo2":-89.0444,"dy":0.0017,"dx":0.0017,"nx":28,"ny":28,"refTime":"2025-07-08T09:00:00:Z","depth":0,"parameterNumber":2,"parameterNumberName":"U-component_of_WINDS"},"data":[0,0,0,0,0,0,0,0,0,0,0,0,0,0,0,0,0,0,0,0,0,0,0,0,0,0,0,0,0,0,0,0,0,0,0,0,0,0,0,0,0,0,0,0,0,0,0,0,0,0,0,0,0,0,0,0,0,0,1.5119,1.512,0,1.5159,1.5159,1.516,1.5144,1.5143,1.5142,1.5141,1.5185,1.5187,1.5189,0,0,0,0,0,0,0,0,0,0,0,0,0,1.5034,1.5036,1.5119,1.512,1.512,1.5159,1.5159,1.516,1.5144,1.5143,1.5142,1.5141,1.5184,1.5187,1.5189,0,0,0,0,0,0,0,0,0,0,0,0,0,1.5072,1.5036,1.5119,1.5117,1.5117,1.5159,1.5159,1.516,1.5144,1.5143,1.5141,1.514,1.5183,1.5186,1.5189,1.5236,0,0,1.5199,1.52,0,0,0,0,0,0,0,0,1.507,1.5075,1.5117,1.5117,1.5117,1.5145,1.5145,1.5186,1.5145,1.5134,1.5141,1.5139,1.5173,1.5177,1.5187,1.5239,1.524,1.5199,1.5201,1.5202,1.5203,0,0,0,0,0,0,0,1.5067,1.5073,1.5135,1.5117,1.5118,1.5115,1.5119,1.5153,1.5161,1.5135,1.5134,1.5139,1.5173,1.5184,1.5188,1.5241,1.5199,1.5202,1.5204,1.5205,1.5335,1.5337,0,0,0,0,0,0,1.5064,1.5071,1.5134,1.5136,1.509,1.5118,1.5122,1.5138,1.5161,1.5163,1.514,1.5138,1.518,1.5185,1.519,1.5248,1.5202,1.5205,1.5207,1.5334,1.5336,1.5338,0,0,0,0,0,0,1.5062,1.507,1.5132,1.5103,1.5111,1.5121,1.5138,1.5139,1.5151,1.5164,1.5166,1.515,1.5179,1.5185,1.5225,1.5249,1.5206,1.5209,1.5332,1.5334,1.5337,1.5364,0,0,0,0,0,0,1.506,1.5069,1.5086,1.5104,1.5113,1.5166,1.514,1.5141,1.5156,1.5153,1.5174,1.5176,1.5178,1.5221,1.5228,1.5253,1.5212,1.533,1.5333,1.5336,1.5361,1.5367,1.5372,0,0,0,0,0,1.5057,1.5092,1.5087,1.5095,1.5134,1.5167,1.5172,1.5173,1.5157,1.5175,1.5185,1.5176,1.5245,1.5225,1.5233,1.5259,1.5328,1.5332,1.5336,1.5358,1.5366,1.5372,0,0,0,0,0,0,1.5078,1.5095,1.5089,1.5131,1.5148,1.5164,1.5187,1.5181,1.5203,1.52,1.5201,1.5206,1.5247,1.5257,1.5234,1.5307,1.5285,1.529,1.5299,1.5306,1.5312,1.5309,1.5214,0,0,0,0,0,1.5087,1.5111,1.5125,1.5161,1.517,1.5177,1.5191,1.5191,1.5208,1.5216,1.5228,1.5246,1.5273,1.529,1.5314,1.5362,1.5368,1.5384,1.539,1.5394,1.5399,1.5427,1.5435,1.535,1.535,1.535,0,0,1.5107,1.5119,1.5134,1.5166,1.5178,1.5205,1.5183,1.5212,1.5232,1.522,1.5259,1.5268,1.5289,1.5334,1.5354,1.5343,1.5424,1.5399,1.5402,1.5405,1.5432,1.544,1.5447,1.5352,1.5352,1.5351,0,0,1.5157,1.5168,1.52,1.5213,1.5233,1.5237,1.5245,1.5263,1.5269,1.5307,1.53,1.5325,1.5369,1.5385,1.5399,1.5457,1.5451,1.5465,1.5495,1.5522,1.5529,1.5535,1.5557,1.5565,1.547,1.547,1.547,0,1.5179,1.5218,1.5217,1.5247,1.5262,1.5252,1.5285,1.5299,1.5326,1.5337,1.5324,1.5382,1.5395,1.5444,1.5458,1.5469,1.548,1.5463,1.5528,1.5534,1.5539,1.5561,1.5569,1.5472,1.5472,1.5472,1.5471,0,1.5245,1.5273,1.5296,1.5322,1.534,1.5371,1.5377,1.5395,1.5393,1.54,1.544,1.5456,1.5485,1.5496,1.5495,1.5546,1.5539,1.5527,1.5505,1.5549,1.557,1.5578,1.5474,1.5474,1.5473,1.5473,0,0,1.5309,1.5335,1.5344,1.5356,1.5378,1.54,1.5432,1.5459,1.5475,1.5495,1.5523,1.5562,1.5552,1.5568,1.5568,1.5592,1.5639,1.5577,1.5578,1.559,1.5698,1.5708,1.5717,1.5634,1.5636,1.5637,1.5697,0,1.5362,1.5417,1.5418,1.5469,1.5495,1.5487,1.5515,1.5532,1.554,1.5564,1.5573,1.5601,1.5585,1.5594,1.5618,1.5628,1.5661,1.5624,1.5662,1.5664,1.5658,1.5727,1.5737,1.5793,1.5705,1.5706,1.5707,0,1.543,1.5452,1.5505,1.5525,1.5536,1.5561,1.5587,1.561,1.563,1.5634,1.5653,1.565,1.5685,1.5661,1.571,1.5685,1.5701,1.5709,1.5711,1.5715,1.5689,1.5735,1.581,1.5819,1.5719,1.5718,1.5717,0,1.5473,1.5516,1.5553,1.5564,1.5587,1.5606,1.5617,1.5635,1.5652,1.5676,1.5687,1.5714,1.573,1.5752,1.5758,1.5739,1.5807,1.5783,1.5813,1.5813,1.5828,1.5827,1.5908,1.5837,1.5837,1.5836,1.5836,0,1.5533,1.5566,1.5573,1.5597,1.5635,1.5636,1.5674,1.5684,1.5701,1.5728,1.5722,1.5748,1.5753,1.578,1.5785,1.5826,1.5833,1.5838,1.5839,1.5839,1.5839,1.585,1.5847,1.5839,1.5838,1.5838,1.5837,0,1.5587,1.5593,1.5634,1.5653,1.5659,1.5686,1.5703,1.5726,1.5733,1.5767,1.5775,1.5787,1.5819,1.5827,1.5864,1.5868,1.5917,1.5913,1.591,1.591,1.5939,1.5937,1.6032,1.6045,1.5963,1.5964,1.5965,0,1.5625,1.5651,1.5672,1.5689,1.5701,1.5728,1.5745,1.5749,1.5767,1.5793,1.5814,1.5845,1.587,1.5921,1.5934,1.5964,1.5962,1.5993,1.5967,1.5966,1.5964,1.5963,1.5967,1.5999,1.6,1.6,1.6001,0,1.5692,1.5694,1.5719,1.5745,1.5766,1.5787,1.5807,1.5822,1.5828,1.5849,1.5881,1.5901,1.594,1.5971,1.6001,1.6014,1.601,1.6009,1.6018,1.6018,1.6016,1.6019,1.5925,1.6007,1.6006,1.6006,1.6006,1.6005,1.5741,1.5764,1.5783,1.5811,1.5826,1.5846,1.5869,1.5879,1.5906,1.5937,1.5938,1.5973,1.5995,1.6034,1.6049,1.6078,1.6069,1.6081,1.6084,1.6087,1.6091,1.601,1.6083,1.6083,1.6083,1.6083,1.6083,0,1.5809,1.5821,1.5847,1.5875,1.5898,1.589,1.5913,1.5933,1.5963,1.5983,1.6008,1.6046,1.6077,1.6093,1.6124,1.6144,1.6143,1.6152,1.6152,1.6155,1.6096,1.6086,1.6153,1.6153,1.6153,1.6153,1.6153,1.6153,1.5847,1.5886,1.589,1.5938,1.595,1.5984,1.5998,1.6016,1.6032,1.6075,1.61,1.611,1.6129,1.6162,1.619,1.6194,1.6207,1.6218,1.6221,1.6166,1.6159,1.6152,1.6143,1.622,1.622,1.6277,1.6277,1.6278]},{"header":{"parameterUnit":"m.s-1","parameterCategory":1,"la1":30.2991,"la2":30.254,"lo1":-89.0895,"lo2":-89.0444,"dy":0.0017,"dx":0.0017,"nx":28,"ny":28,"refTime":"2025-07-08T09:00:00:Z","depth":0,"parameterNumber":3,"parameterNumberName":"V-component_of_WINDS"},"data":[0,0,0,0,0,0,0,0,0,0,0,0,0,0,0,0,0,0,0,0,0,0,0,0,0,0,0,0,0,0,0,0,0,0,0,0,0,0,0,0,0,0,0,0,0,0,0,0,0,0,0,0,0,0,0,0,0,0,-1.636,-1.6361,0,-1.641,-1.641,-1.6411,-1.6419,-1.6419,-1.6418,-1.6418,-1.6467,-1.6469,-1.647,0,0,0,0,0,0,0,0,0,0,0,0,0,-1.6272,-1.6274,-1.636,-1.6361,-1.6361,-1.641,-1.641,-1.6411,-1.6419,-1.6419,-1.6418,-1.6418,-1.6467,-1.6469,-1.6471,0,0,0,0,0,0,0,0,0,0,0,0,0,-1.6315,-1.6274,-1.636,-1.6371,-1.6373,-1.6409,-1.641,-1.6411,-1.6419,-1.6419,-1.6418,-1.6418,-1.6466,-1.6468,-1.6471,-1.6499,0,0,-1.6479,-1.648,0,0,0,0,0,0,0,0,-1.6312,-1.6318,-1.6369,-1.6371,-1.6372,-1.6408,-1.6397,-1.6441,-1.642,-1.6402,-1.6418,-1.6417,-1.6448,-1.6452,-1.6462,-1.6501,-1.6504,-1.6479,-1.648,-1.6482,-1.6482,0,0,0,0,0,0,0,-1.6309,-1.6316,-1.638,-1.637,-1.6372,-1.6374,-1.6379,-1.6405,-1.6428,-1.6403,-1.6404,-1.641,-1.6449,-1.646,-1.6464,-1.6504,-1.6479,-1.6481,-1.6483,-1.6484,-1.6571,-1.6571,0,0,0,0,0,0,-1.6305,-1.6313,-1.6378,-1.6381,-1.634,-1.6376,-1.6382,-1.6397,-1.6427,-1.6431,-1.641,-1.641,-1.6456,-1.6461,-1.6465,-1.6502,-1.6482,-1.6484,-1.6485,-1.657,-1.6571,-1.6572,0,0,0,0,0,0,-1.6303,-1.631,-1.6376,-1.6348,-1.6356,-1.6378,-1.6395,-1.6398,-1.641,-1.6433,-1.6436,-1.6418,-1.6456,-1.6462,-1.6491,-1.6504,-1.6485,-1.6487,-1.6569,-1.657,-1.6571,-1.6574,0,0,0,0,0,0,-1.63,-1.6309,-1.6321,-1.6348,-1.6358,-1.6401,-1.6396,-1.64,-1.6414,-1.6414,-1.6441,-1.6445,-1.6456,-1.6487,-1.6494,-1.6507,-1.6489,-1.6568,-1.657,-1.6571,-1.6573,-1.6576,-1.6577,0,0,0,0,0,-1.6297,-1.6319,-1.6321,-1.6329,-1.6372,-1.6402,-1.6408,-1.642,-1.6415,-1.6427,-1.6442,-1.6444,-1.6501,-1.649,-1.6498,-1.6512,-1.6567,-1.6569,-1.6571,-1.6572,-1.6575,-1.6577,0,0,0,0,0,0,-1.6292,-1.6322,-1.6325,-1.6357,-1.6377,-1.6403,-1.6418,-1.6422,-1.6444,-1.6443,-1.6457,-1.6463,-1.6492,-1.6504,-1.6492,-1.6541,-1.6534,-1.6537,-1.6532,-1.6535,-1.6537,-1.6534,-1.6491,0,0,0,0,0,-1.6294,-1.6316,-1.6342,-1.6367,-1.6377,-1.6396,-1.6409,-1.6417,-1.6439,-1.6447,-1.6464,-1.6484,-1.6507,-1.6521,-1.6543,-1.6575,-1.6581,-1.6588,-1.659,-1.6592,-1.6595,-1.6614,-1.6618,-1.6578,-1.6578,-1.6577,0,0,-1.6299,-1.6319,-1.6332,-1.6367,-1.6383,-1.6406,-1.6403,-1.6427,-1.6444,-1.645,-1.648,-1.6493,-1.6516,-1.6548,-1.6562,-1.6559,-1.6607,-1.6594,-1.6595,-1.6597,-1.6616,-1.662,-1.6623,-1.6579,-1.6579,-1.6578,0,0,-1.6321,-1.6338,-1.6362,-1.6379,-1.6404,-1.6417,-1.6422,-1.6448,-1.6458,-1.6488,-1.6494,-1.6514,-1.6552,-1.6569,-1.6583,-1.6612,-1.6616,-1.6619,-1.663,-1.6649,-1.6652,-1.6655,-1.6667,-1.6671,-1.6622,-1.6622,-1.6622,0,-1.6325,-1.636,-1.6373,-1.6398,-1.6413,-1.642,-1.6445,-1.646,-1.6491,-1.6502,-1.6498,-1.6547,-1.6563,-1.6599,-1.6607,-1.6617,-1.6625,-1.6617,-1.6651,-1.6654,-1.6656,-1.6668,-1.6673,-1.6622,-1.6622,-1.6622,-1.6622,0,-1.6364,-1.6388,-1.6404,-1.6435,-1.6452,-1.6476,-1.6493,-1.6509,-1.6515,-1.6528,-1.6559,-1.6579,-1.6606,-1.6615,-1.6621,-1.6652,-1.665,-1.6648,-1.6641,-1.6661,-1.6672,-1.6676,-1.6623,-1.6622,-1.6622,-1.6622,0,0,-1.6384,-1.6423,-1.6429,-1.6444,-1.6473,-1.6492,-1.6516,-1.6543,-1.6557,-1.6578,-1.66,-1.6633,-1.6632,-1.6647,-1.6655,-1.6671,-1.6696,-1.6668,-1.6669,-1.6674,-1.6733,-1.6736,-1.6741,-1.6698,-1.6698,-1.6699,-1.6732,0,-1.6411,-1.6456,-1.6469,-1.6507,-1.653,-1.6538,-1.656,-1.658,-1.6593,-1.6614,-1.6628,-1.6652,-1.6648,-1.6658,-1.6674,-1.6689,-1.6708,-1.6687,-1.6719,-1.672,-1.6715,-1.6746,-1.6749,-1.6779,-1.6736,-1.6737,-1.6737,0,-1.6448,-1.6471,-1.6512,-1.654,-1.655,-1.6569,-1.6596,-1.6616,-1.6639,-1.6648,-1.6666,-1.6673,-1.6699,-1.669,-1.6727,-1.6712,-1.6726,-1.6735,-1.6737,-1.6742,-1.6731,-1.6753,-1.6788,-1.6793,-1.6744,-1.6744,-1.6743,0,-1.6461,-1.6502,-1.6533,-1.6545,-1.6577,-1.6591,-1.6605,-1.6627,-1.6643,-1.6666,-1.6677,-1.6702,-1.6717,-1.6736,-1.675,-1.6742,-1.6787,-1.6778,-1.6795,-1.6795,-1.6805,-1.6805,-1.6844,-1.6811,-1.6811,-1.6811,-1.6811,0,-1.6491,-1.6516,-1.6539,-1.6558,-1.6587,-1.6601,-1.6629,-1.6643,-1.6663,-1.6685,-1.6692,-1.6713,-1.6729,-1.6751,-1.6762,-1.6792,-1.6798,-1.6806,-1.6809,-1.6807,-1.6806,-1.6817,-1.6816,-1.6812,-1.6812,-1.6812,-1.6812,0,-1.6511,-1.6527,-1.6561,-1.6589,-1.6597,-1.6617,-1.6641,-1.666,-1.6673,-1.67,-1.6708,-1.6728,-1.6755,-1.6771,-1.6804,-1.6812,-1.6846,-1.6847,-1.6838,-1.684,-1.6857,-1.6856,-1.6907,-1.6915,-1.6874,-1.6875,-1.6875,0,-1.6529,-1.6549,-1.658,-1.6595,-1.661,-1.6634,-1.6651,-1.6666,-1.6683,-1.6712,-1.6727,-1.6755,-1.6778,-1.6821,-1.6839,-1.6865,-1.6868,-1.6884,-1.6872,-1.6869,-1.687,-1.687,-1.6873,-1.6886,-1.6887,-1.6887,-1.6887,0,-1.6561,-1.6569,-1.6593,-1.662,-1.664,-1.6662,-1.6684,-1.6696,-1.6715,-1.6734,-1.6762,-1.678,-1.6815,-1.6843,-1.6871,-1.6885,-1.689,-1.6891,-1.6896,-1.6895,-1.689,-1.6895,-1.6846,-1.689,-1.6889,-1.6889,-1.6889,-1.6889,-1.6582,-1.6601,-1.6626,-1.6653,-1.6671,-1.6692,-1.6711,-1.6727,-1.6751,-1.6782,-1.6789,-1.6819,-1.6843,-1.6881,-1.6896,-1.692,-1.6917,-1.6925,-1.6927,-1.6929,-1.6931,-1.6885,-1.6924,-1.6924,-1.6924,-1.6924,-1.6924,0,-1.6616,-1.6633,-1.6657,-1.6689,-1.671,-1.6712,-1.6737,-1.6755,-1.6782,-1.6804,-1.6827,-1.686,-1.6887,-1.6907,-1.6935,-1.6951,-1.6954,-1.6958,-1.6958,-1.6961,-1.6931,-1.6924,-1.6955,-1.6955,-1.6955,-1.6955,-1.6955,-1.6955,-1.6636,-1.6669,-1.6679,-1.6721,-1.6737,-1.6768,-1.6782,-1.6801,-1.6819,-1.6856,-1.6879,-1.6892,-1.6914,-1.6944,-1.6969,-1.6974,-1.6985,-1.6989,-1.6995,-1.6967,-1.6963,-1.696,-1.6954,-1.6991,-1.6991,-1.7024,-1.7025,-1.7025]}]]